contact:dominique.lefevre@mio.osupytheas.fr, maurice.libes@osupytheas.fr, didier.mallarino@osupytheas.fr
Project:EMSO http://www.emso-fr.org/EMSO-France
Depth: 2436.0 m
Title:EMSO Ligure Ouest : Data MII capteur CSTAR
DateTime,Latitude,Longitude,Instrument_Serial,Reference_Counts,Signal_Counts,Corrected_Signal_raw_counts,Calculated_Beam_c_inverse_meters,Internal_thermistor_counts
DateTime,Latitude,Longitude,Instrument_Serial,Reference_Counts,Signal_Counts,Corrected_Signal_raw_counts,Calculated_Beam_c_inverse_meters,Internal_thermistor_counts
2022-07-04T00:03:00,42.805,6.029,CST-1368DR,4676,5172,11785,01.126,551
2022-07-04T00:06:02,42.805,6.029,CST-1368DR,4676,5180,11804,01.119,551
2022-07-04T00:09:03,42.805,6.029,CST-1368DR,4675,5174,11792,01.123,551
2022-07-04T00:12:05,42.805,6.029,CST-1368DR,4676,5193,11834,01.109,551
2022-07-04T00:15:06,42.805,6.029,CST-1368DR,4676,5194,11836,01.109,551
2022-07-04T00:18:08,42.805,6.029,CST-1368DR,4675,5165,11772,01.130,551
2022-07-04T00:21:09,42.805,6.029,CST-1368DR,4676,5177,11797,01.122,551
2022-07-04T00:24:11,42.805,6.029,CST-1368DR,4675,5176,11796,01.122,551
2022-07-04T00:27:13,42.805,6.029,CST-1368DR,4676,5184,11811,01.117,551
2022-07-04T00:30:14,42.805,6.029,CST-1368DR,4676,5175,11791,01.124,551
2022-07-04T00:33:16,42.805,6.029,CST-1368DR,4676,5205,11860,01.100,551
2022-07-04T00:36:17,42.805,6.029,CST-1368DR,4676,5184,11812,01.117,551
2022-07-04T00:39:19,42.805,6.029,CST-1368DR,4675,5173,11790,01.124,551
2022-07-04T00:42:21,42.805,6.029,CST-1368DR,4675,5175,11794,01.123,551
2022-07-04T00:45:22,42.805,6.029,CST-1368DR,4675,5177,11799,01.121,551
2022-07-04T00:48:24,42.805,6.029,CST-1368DR,4675,5171,11784,01.126,551
2022-07-04T00:51:25,42.805,6.029,CST-1368DR,4676,5182,11807,01.118,551
2022-07-04T00:54:27,42.805,6.029,CST-1368DR,4676,5187,11818,01.115,551
2022-07-04T00:57:28,42.805,6.029,CST-1368DR,4676,5185,11815,01.116,551
2022-07-04T01:00:30,42.805,6.029,CST-1368DR,4676,5190,11827,01.112,551
2022-07-04T01:03:32,42.805,6.029,CST-1368DR,4676,5187,11818,01.115,551
2022-07-04T01:06:33,42.805,6.029,CST-1368DR,4676,5186,11816,01.115,551
2022-07-04T01:09:35,42.805,6.029,CST-1368DR,4676,5193,11834,01.109,551
2022-07-04T01:12:36,42.805,6.029,CST-1368DR,4676,5193,11833,01.110,551
2022-07-04T01:15:38,42.805,6.029,CST-1368DR,4676,5181,11806,01.119,551
2022-07-04T01:18:39,42.805,6.029,CST-1368DR,4675,5176,11796,01.122,551
2022-07-04T01:21:41,42.805,6.029,CST-1368DR,4676,5181,11806,01.119,551
2022-07-04T01:24:43,42.805,6.029,CST-1368DR,4675,5175,11794,01.123,551
2022-07-04T01:27:44,42.805,6.029,CST-1368DR,4676,5186,11816,01.115,551
2022-07-04T01:30:46,42.805,6.029,CST-1368DR,4675,5180,11806,01.119,551
2022-07-04T01:33:47,42.805,6.029,CST-1368DR,4676,5206,11861,01.100,551
2022-07-04T01:36:49,42.805,6.029,CST-1368DR,4676,5196,11839,01.108,551
2022-07-04T01:39:51,42.805,6.029,CST-1368DR,4676,5203,11855,01.102,551
2022-07-04T01:42:52,42.805,6.029,CST-1368DR,4676,5198,11845,01.106,551
2022-07-04T01:45:54,42.805,6.029,CST-1368DR,4676,5198,11844,01.106,551
2022-07-04T01:48:55,42.805,6.029,CST-1368DR,4676,5194,11835,01.109,551
2022-07-04T01:51:57,42.805,6.029,CST-1368DR,4676,5190,11825,01.112,551
2022-07-04T01:54:58,42.805,6.029,CST-1368DR,4676,5192,11831,01.110,551
2022-07-04T01:58:00,42.805,6.029,CST-1368DR,4676,5196,11839,01.108,551
2022-07-04T02:01:02,42.805,6.029,CST-1368DR,4675,5193,11834,01.109,551
2022-07-04T02:04:03,42.805,6.029,CST-1368DR,4676,5199,11847,01.105,551
2022-07-04T02:07:05,42.805,6.029,CST-1368DR,4676,5198,11845,01.106,551
2022-07-04T02:10:06,42.805,6.029,CST-1368DR,4676,5195,11838,01.108,551
2022-07-04T02:13:08,42.805,6.029,CST-1368DR,4676,5194,11835,01.109,551
2022-07-04T02:16:09,42.805,6.029,CST-1368DR,4676,5191,11828,01.111,551
2022-07-04T02:19:11,42.805,6.029,CST-1368DR,4676,5193,11833,01.110,551
2022-07-04T02:22:13,42.805,6.029,CST-1368DR,4676,5191,11829,01.111,551
2022-07-04T02:25:14,42.805,6.029,CST-1368DR,4676,5187,11818,01.115,551
2022-07-04T02:28:16,42.805,6.029,CST-1368DR,4676,5192,11830,01.111,551
2022-07-04T02:31:17,42.805,6.029,CST-1368DR,4676,5191,11828,01.111,551
2022-07-04T02:34:19,42.805,6.029,CST-1368DR,4676,5195,11837,01.108,551
2022-07-04T02:37:21,42.805,6.029,CST-1368DR,4676,5206,11862,01.100,551
2022-07-04T02:40:22,42.805,6.029,CST-1368DR,4676,5190,11827,01.112,551
2022-07-04T02:43:24,42.805,6.029,CST-1368DR,4676,5187,11818,01.115,551
2022-07-04T02:46:25,42.805,6.029,CST-1368DR,4676,5186,11816,01.115,551
2022-07-04T02:49:27,42.805,6.029,CST-1368DR,4676,5192,11830,01.111,551
2022-07-04T02:52:28,42.805,6.029,CST-1368DR,4676,5192,11830,01.111,551
2022-07-04T02:55:30,42.805,6.029,CST-1368DR,4676,5195,11838,01.108,551
2022-07-04T02:58:32,42.805,6.029,CST-1368DR,4676,5194,11835,01.109,551
2022-07-04T03:01:33,42.805,6.029,CST-1368DR,4676,5195,11838,01.108,551
2022-07-04T03:04:35,42.805,6.029,CST-1368DR,4676,5201,11850,01.104,551
2022-07-04T03:07:36,42.805,6.029,CST-1368DR,4676,5211,11874,01.096,551
2022-07-04T03:10:38,42.805,6.029,CST-1368DR,4676,5196,11840,01.107,551
2022-07-04T03:13:40,42.805,6.029,CST-1368DR,4676,5205,11861,01.100,551
2022-07-04T03:16:41,42.805,6.029,CST-1368DR,4676,5206,11862,01.100,551
2022-07-04T03:19:43,42.805,6.029,CST-1368DR,4676,5219,11893,01.089,551
2022-07-04T03:22:44,42.805,6.029,CST-1368DR,4676,5227,11910,01.084,551
2022-07-04T03:25:46,42.805,6.029,CST-1368DR,4676,5206,11861,01.100,551
2022-07-04T03:28:47,42.805,6.029,CST-1368DR,4676,5207,11864,01.099,551
2022-07-04T03:31:49,42.805,6.029,CST-1368DR,4676,5200,11849,01.104,551
2022-07-04T03:34:51,42.805,6.029,CST-1368DR,4676,5203,11855,01.102,551
2022-07-04T03:37:52,42.805,6.029,CST-1368DR,4675,5199,11848,01.105,551
2022-07-04T03:40:54,42.805,6.029,CST-1368DR,4676,5201,11852,01.103,551
2022-07-04T03:43:55,42.805,6.029,CST-1368DR,4676,5198,11844,01.106,551
2022-07-04T03:46:57,42.805,6.029,CST-1368DR,4676,5201,11850,01.104,551
2022-07-04T03:49:58,42.805,6.029,CST-1368DR,4676,5197,11841,01.107,551
2022-07-04T03:53:00,42.805,6.029,CST-1368DR,4676,5193,11834,01.109,551
2022-07-04T03:56:02,42.805,6.029,CST-1368DR,4676,5203,11856,01.102,551
2022-07-04T03:59:03,42.805,6.029,CST-1368DR,4676,5203,11855,01.102,551
2022-07-04T04:02:05,42.805,6.029,CST-1368DR,4676,5200,11848,01.105,551
2022-07-04T04:05:06,42.805,6.029,CST-1368DR,4676,5202,11853,01.103,551
2022-07-04T04:08:08,42.805,6.029,CST-1368DR,4675,5201,11853,01.103,551
2022-07-04T04:11:10,42.805,6.029,CST-1368DR,4676,5203,11855,01.102,551
2022-07-04T04:14:11,42.805,6.029,CST-1368DR,4676,5206,11863,01.099,551
2022-07-04T04:17:13,42.805,6.029,CST-1368DR,4675,5202,11855,01.102,551
2022-07-04T04:20:14,42.805,6.029,CST-1368DR,4675,5201,11852,01.103,551
2022-07-04T04:23:16,42.805,6.029,CST-1368DR,4675,5204,11860,01.100,551
2022-07-04T04:26:17,42.805,6.029,CST-1368DR,4675,5198,11847,01.105,551
2022-07-04T04:29:19,42.805,6.029,CST-1368DR,4675,5198,11846,01.105,551
2022-07-04T04:32:21,42.805,6.029,CST-1368DR,4675,5193,11835,01.109,551
2022-07-04T04:35:22,42.805,6.029,CST-1368DR,4676,5205,11860,01.100,551
2022-07-04T04:38:24,42.805,6.029,CST-1368DR,4676,5201,11852,01.103,551
2022-07-04T04:41:25,42.805,6.029,CST-1368DR,4676,5199,11846,01.105,551
2022-07-04T04:44:27,42.805,6.029,CST-1368DR,4675,5198,11847,01.105,551
2022-07-04T04:47:28,42.805,6.029,CST-1368DR,4675,5202,11855,01.102,551
2022-07-04T04:50:30,42.805,6.029,CST-1368DR,4675,5195,11841,01.107,551
2022-07-04T04:53:32,42.805,6.029,CST-1368DR,4676,5212,11875,01.095,551
2022-07-04T04:56:33,42.805,6.029,CST-1368DR,4676,5205,11860,01.100,551
2022-07-04T04:59:35,42.805,6.029,CST-1368DR,4675,5196,11842,01.107,551
2022-07-04T05:02:36,42.805,6.029,CST-1368DR,4675,5201,11854,01.103,551
2022-07-04T05:05:38,42.805,6.029,CST-1368DR,4675,5195,11840,01.107,551
2022-07-04T05:08:40,42.805,6.029,CST-1368DR,4675,5197,11845,01.106,551
2022-07-04T05:11:41,42.805,6.029,CST-1368DR,4675,5197,11844,01.106,551
2022-07-04T05:14:43,42.805,6.029,CST-1368DR,4675,5195,11841,01.107,551
2022-07-04T05:17:44,42.805,6.029,CST-1368DR,4675,5203,11858,01.101,551
2022-07-04T05:20:46,42.805,6.029,CST-1368DR,4675,5199,11849,01.104,551
2022-07-04T05:23:47,42.805,6.029,CST-1368DR,4675,5203,11858,01.101,551
2022-07-04T05:26:49,42.805,6.029,CST-1368DR,4675,5202,11855,01.102,551
2022-07-04T05:29:51,42.805,6.029,CST-1368DR,4675,5197,11845,01.106,551
2022-07-04T05:32:52,42.805,6.029,CST-1368DR,4675,5194,11837,01.108,551
2022-07-04T05:35:54,42.805,6.029,CST-1368DR,4675,5195,11839,01.108,551
2022-07-04T05:38:55,42.805,6.029,CST-1368DR,4675,5195,11839,01.108,551
2022-07-04T05:41:57,42.805,6.029,CST-1368DR,4675,5196,11843,01.106,551
2022-07-04T05:44:58,42.805,6.029,CST-1368DR,4675,5193,11835,01.109,551
2022-07-04T05:48:00,42.805,6.029,CST-1368DR,4675,5200,11851,01.104,551
2022-07-04T05:51:02,42.805,6.029,CST-1368DR,4675,5194,11838,01.108,551
2022-07-04T05:54:03,42.805,6.029,CST-1368DR,4675,5192,11833,01.110,551
2022-07-04T05:57:05,42.805,6.029,CST-1368DR,4675,5205,11863,01.099,551
2022-07-04T06:00:06,42.805,6.029,CST-1368DR,4675,5192,11832,01.110,551
2022-07-04T06:03:08,42.805,6.029,CST-1368DR,4675,5198,11847,01.105,551
2022-07-04T06:06:10,42.805,6.029,CST-1368DR,4675,5192,11832,01.110,551
2022-07-04T06:09:11,42.805,6.029,CST-1368DR,4675,5192,11832,01.110,551
2022-07-04T06:12:13,42.805,6.029,CST-1368DR,4675,5197,11845,01.106,551
2022-07-04T06:15:14,42.805,6.029,CST-1368DR,4675,5197,11844,01.106,551
2022-07-04T06:18:16,42.805,6.029,CST-1368DR,4675,5187,11822,01.113,551
2022-07-04T06:21:17,42.805,6.029,CST-1368DR,4675,5189,11826,01.112,551
2022-07-04T06:24:19,42.805,6.029,CST-1368DR,4675,5195,11840,01.107,551
2022-07-04T06:27:21,42.805,6.029,CST-1368DR,4675,5197,11843,01.106,551
2022-07-04T06:30:22,42.805,6.029,CST-1368DR,4675,5190,11827,01.112,551
2022-07-04T06:33:24,42.805,6.029,CST-1368DR,4675,5192,11834,01.109,551
2022-07-04T06:36:25,42.805,6.029,CST-1368DR,4675,5193,11835,01.109,551
2022-07-04T06:39:27,42.805,6.029,CST-1368DR,4675,5193,11836,01.109,551
2022-07-04T06:42:28,42.805,6.029,CST-1368DR,4675,5197,11844,01.106,551
2022-07-04T06:45:30,42.805,6.029,CST-1368DR,4675,5198,11847,01.105,551
2022-07-04T06:48:32,42.805,6.029,CST-1368DR,4675,5193,11834,01.109,551
2022-07-04T06:51:33,42.805,6.029,CST-1368DR,4675,5204,11860,01.100,551
2022-07-04T06:54:35,42.805,6.029,CST-1368DR,4675,5201,11852,01.103,551
2022-07-04T06:57:36,42.805,6.029,CST-1368DR,4675,5207,11866,01.098,551
2022-07-04T07:00:38,42.805,6.029,CST-1368DR,4675,5203,11858,01.101,551
2022-07-04T07:03:39,42.805,6.029,CST-1368DR,4675,5196,11843,01.106,551
2022-07-04T07:06:41,42.805,6.029,CST-1368DR,4675,5196,11842,01.107,551
2022-07-04T07:09:43,42.805,6.029,CST-1368DR,4675,5197,11844,01.106,551
2022-07-04T07:12:44,42.805,6.029,CST-1368DR,4675,5195,11839,01.108,551
2022-07-04T07:15:46,42.805,6.029,CST-1368DR,4675,5193,11835,01.109,551
2022-07-04T07:18:47,42.805,6.029,CST-1368DR,4675,5194,11837,01.108,551
2022-07-04T07:21:49,42.805,6.029,CST-1368DR,4675,5198,11847,01.105,551
2022-07-04T07:24:51,42.805,6.029,CST-1368DR,4675,5198,11847,01.105,551
2022-07-04T07:27:52,42.805,6.029,CST-1368DR,4675,5199,11850,01.104,551
2022-07-04T07:30:54,42.805,6.029,CST-1368DR,4675,5196,11841,01.107,551
2022-07-04T07:33:55,42.805,6.029,CST-1368DR,4675,5195,11839,01.108,551
2022-07-04T07:36:57,42.805,6.029,CST-1368DR,4675,5193,11836,01.109,551
2022-07-04T07:39:58,42.805,6.029,CST-1368DR,4675,5193,11835,01.109,551
2022-07-04T07:43:00,42.805,6.029,CST-1368DR,4675,5194,11838,01.108,551
2022-07-04T07:46:02,42.805,6.029,CST-1368DR,4675,5198,11847,01.105,551
2022-07-04T07:49:03,42.805,6.029,CST-1368DR,4675,5193,11836,01.109,551
2022-07-04T07:52:05,42.805,6.029,CST-1368DR,4675,5192,11834,01.109,551
2022-07-04T07:55:06,42.805,6.029,CST-1368DR,4675,5199,11849,01.104,551
2022-07-04T07:58:08,42.805,6.029,CST-1368DR,4675,5195,11839,01.108,551
2022-07-04T08:01:09,42.805,6.029,CST-1368DR,4675,5193,11836,01.109,551
2022-07-04T08:04:11,42.805,6.029,CST-1368DR,4675,5193,11834,01.109,551
2022-07-04T08:07:13,42.805,6.029,CST-1368DR,4675,5191,11830,01.111,551
2022-07-04T08:10:14,42.805,6.029,CST-1368DR,4675,5194,11838,01.108,551
2022-07-04T08:13:16,42.805,6.029,CST-1368DR,4675,5190,11827,01.112,551
2022-07-04T08:16:17,42.805,6.029,CST-1368DR,4675,5191,11831,01.110,551
2022-07-04T08:19:19,42.805,6.029,CST-1368DR,4675,5189,11825,01.112,551
2022-07-04T08:22:21,42.805,6.029,CST-1368DR,4675,5198,11847,01.105,551
2022-07-04T08:25:22,42.805,6.029,CST-1368DR,4675,5193,11834,01.109,551
2022-07-04T08:28:24,42.805,6.029,CST-1368DR,4675,5201,11852,01.103,551
2022-07-04T08:31:25,42.805,6.029,CST-1368DR,4675,5198,11846,01.105,551
2022-07-04T08:34:27,42.805,6.029,CST-1368DR,4675,5201,11854,01.103,551
2022-07-04T08:37:28,42.805,6.029,CST-1368DR,4675,5193,11835,01.109,551
2022-07-04T08:40:30,42.805,6.029,CST-1368DR,4675,5199,11848,01.105,551
2022-07-04T08:43:32,42.805,6.029,CST-1368DR,4675,5196,11843,01.106,551
2022-07-04T08:46:33,42.805,6.029,CST-1368DR,4675,5202,11856,01.102,551
2022-07-04T08:49:35,42.805,6.029,CST-1368DR,4675,5194,11838,01.108,551
2022-07-04T08:52:36,42.805,6.029,CST-1368DR,4675,5192,11833,01.110,551
2022-07-04T08:55:38,42.805,6.029,CST-1368DR,4675,5195,11839,01.108,551
2022-07-04T08:58:40,42.805,6.029,CST-1368DR,4675,5199,11850,01.104,551
2022-07-04T09:01:41,42.805,6.029,CST-1368DR,4675,5196,11842,01.107,551
2022-07-04T09:04:43,42.805,6.029,CST-1368DR,4675,5193,11835,01.109,551
2022-07-04T09:07:44,42.805,6.029,CST-1368DR,4675,5190,11829,01.111,551
2022-07-04T09:10:46,42.805,6.029,CST-1368DR,4675,5188,11825,01.112,551
2022-07-04T09:13:47,42.805,6.029,CST-1368DR,4675,5193,11835,01.109,551
2022-07-04T09:16:49,42.805,6.029,CST-1368DR,4675,5199,11848,01.105,551
2022-07-04T09:19:51,42.805,6.029,CST-1368DR,4675,5190,11829,01.111,551
2022-07-04T09:22:52,42.805,6.029,CST-1368DR,4675,5194,11838,01.108,551
2022-07-04T09:25:54,42.805,6.029,CST-1368DR,4675,5193,11836,01.109,551
2022-07-04T09:28:55,42.805,6.029,CST-1368DR,4675,5185,11817,01.115,551
2022-07-04T09:31:57,42.805,6.029,CST-1368DR,4675,5189,11826,01.112,551
2022-07-04T09:34:58,42.805,6.029,CST-1368DR,4675,5197,11844,01.106,551
2022-07-04T09:38:00,42.805,6.029,CST-1368DR,4675,5190,11829,01.111,551
2022-07-04T09:41:02,42.805,6.029,CST-1368DR,4675,5188,11825,01.112,551
2022-07-04T09:44:03,42.805,6.029,CST-1368DR,4675,5198,11847,01.105,551
2022-07-04T09:47:05,42.805,6.029,CST-1368DR,4675,5193,11836,01.109,551
2022-07-04T09:50:06,42.805,6.029,CST-1368DR,4675,5195,11839,01.108,551
2022-07-04T09:53:08,42.805,6.029,CST-1368DR,4675,5186,11819,01.114,551
2022-07-04T09:56:10,42.805,6.029,CST-1368DR,4675,5192,11833,01.110,551
2022-07-04T09:59:11,42.805,6.029,CST-1368DR,4675,5194,11837,01.108,551
2022-07-04T10:02:13,42.805,6.029,CST-1368DR,4675,5195,11840,01.107,551
2022-07-04T10:05:14,42.805,6.029,CST-1368DR,4675,5199,11848,01.105,551
2022-07-04T10:08:16,42.805,6.029,CST-1368DR,4675,5195,11841,01.107,551
2022-07-04T10:11:17,42.805,6.029,CST-1368DR,4675,5196,11841,01.107,551
2022-07-04T10:14:19,42.805,6.029,CST-1368DR,4675,5192,11833,01.110,551
2022-07-04T10:17:21,42.805,6.029,CST-1368DR,4675,5190,11828,01.111,551
2022-07-04T10:20:22,42.805,6.029,CST-1368DR,4675,5199,11848,01.105,551
2022-07-04T10:23:24,42.805,6.029,CST-1368DR,4675,5189,11825,01.112,551
2022-07-04T10:26:25,42.805,6.029,CST-1368DR,4675,5189,11826,01.112,551
2022-07-04T10:29:27,42.805,6.029,CST-1368DR,4675,5190,11828,01.111,551
2022-07-04T10:32:29,42.805,6.029,CST-1368DR,4675,5195,11839,01.108,551
2022-07-04T10:35:30,42.805,6.029,CST-1368DR,4675,5194,11838,01.108,551
2022-07-04T10:38:32,42.805,6.029,CST-1368DR,4675,5195,11839,01.108,551
2022-07-04T10:41:33,42.805,6.029,CST-1368DR,4675,5202,11856,01.102,551
2022-07-04T10:44:35,42.805,6.029,CST-1368DR,4675,5209,11872,01.096,551
2022-07-04T10:47:36,42.805,6.029,CST-1368DR,4675,5217,11890,01.090,551
2022-07-04T10:50:38,42.805,6.029,CST-1368DR,4675,5209,11872,01.096,551
2022-07-04T10:53:40,42.805,6.029,CST-1368DR,4675,5223,11903,01.086,551
2022-07-04T10:56:41,42.805,6.029,CST-1368DR,4675,5230,11919,01.081,551
2022-07-04T10:59:43,42.805,6.029,CST-1368DR,4675,5242,11948,01.071,551
2022-07-04T11:02:44,42.805,6.029,CST-1368DR,4675,5236,11932,01.076,551
2022-07-04T11:05:46,42.805,6.029,CST-1368DR,4675,5236,11932,01.076,551
2022-07-04T11:08:47,42.805,6.029,CST-1368DR,4675,5239,11939,01.074,551
2022-07-04T11:11:49,42.805,6.029,CST-1368DR,4675,5238,11937,01.075,551
2022-07-04T11:14:51,42.805,6.029,CST-1368DR,4675,5243,11949,01.071,551
2022-07-04T11:17:52,42.805,6.029,CST-1368DR,4675,5240,11941,01.073,551
2022-07-04T11:20:54,42.805,6.029,CST-1368DR,4675,5241,11945,01.072,551
2022-07-04T11:23:55,42.805,6.029,CST-1368DR,4675,5243,11948,01.071,551
2022-07-04T11:26:57,42.805,6.029,CST-1368DR,4675,5235,11931,01.077,551
2022-07-04T11:29:59,42.805,6.029,CST-1368DR,4675,5238,11937,01.075,551
2022-07-04T11:33:00,42.805,6.029,CST-1368DR,4675,5239,11940,01.074,551
2022-07-04T11:36:02,42.805,6.029,CST-1368DR,4675,5238,11939,01.074,551
2022-07-04T11:39:03,42.805,6.029,CST-1368DR,4675,5231,11922,01.080,551
2022-07-04T11:42:05,42.805,6.029,CST-1368DR,4675,5239,11941,01.073,551
2022-07-04T11:45:06,42.805,6.029,CST-1368DR,4675,5238,11938,01.074,551
2022-07-04T11:48:08,42.805,6.029,CST-1368DR,4675,5233,11927,01.078,551
2022-07-04T11:51:10,42.805,6.029,CST-1368DR,4675,5233,11925,01.079,551
2022-07-04T11:54:11,42.805,6.029,CST-1368DR,4675,5232,11925,01.079,551
2022-07-04T11:57:13,42.805,6.029,CST-1368DR,4675,5228,11915,01.082,551
2022-07-04T12:00:14,42.805,6.029,CST-1368DR,4675,5234,11928,01.078,551
2022-07-04T12:03:16,42.805,6.029,CST-1368DR,4675,5233,11926,01.078,551
2022-07-04T12:06:17,42.805,6.029,CST-1368DR,4675,5234,11928,01.078,551
2022-07-04T12:09:19,42.805,6.029,CST-1368DR,4675,5235,11930,01.077,551
2022-07-04T12:12:21,42.805,6.029,CST-1368DR,4675,5229,11917,01.081,551
2022-07-04T12:15:22,42.805,6.029,CST-1368DR,4675,5229,11916,01.082,551
2022-07-04T12:18:24,42.805,6.029,CST-1368DR,4675,5224,11907,01.085,551
2022-07-04T12:21:25,42.805,6.029,CST-1368DR,4675,5229,11918,01.081,551
2022-07-04T12:24:27,42.805,6.029,CST-1368DR,4675,5234,11928,01.078,551
2022-07-04T12:27:29,42.805,6.029,CST-1368DR,4675,5228,11916,01.082,551
2022-07-04T12:30:30,42.805,6.029,CST-1368DR,4675,5228,11915,01.082,551
2022-07-04T12:33:32,42.805,6.029,CST-1368DR,4675,5223,11903,01.086,551
2022-07-04T12:36:33,42.805,6.029,CST-1368DR,4675,5244,11952,01.070,551
2022-07-04T12:39:35,42.805,6.029,CST-1368DR,4675,5217,11889,01.091,551
2022-07-04T12:42:36,42.805,6.029,CST-1368DR,4675,5217,11891,01.090,551
2022-07-04T12:45:38,42.805,6.029,CST-1368DR,4675,5218,11892,01.090,551
2022-07-04T12:48:40,42.805,6.029,CST-1368DR,4675,5221,11899,01.087,551
2022-07-04T12:51:41,42.805,6.029,CST-1368DR,4675,5216,11888,01.091,551
2022-07-04T12:54:43,42.805,6.029,CST-1368DR,4675,5215,11886,01.092,551
2022-07-04T12:57:44,42.805,6.029,CST-1368DR,4675,5213,11880,01.094,551
2022-07-04T13:00:46,42.805,6.029,CST-1368DR,4675,5209,11871,01.097,551
2022-07-04T13:03:47,42.805,6.029,CST-1368DR,4675,5201,11854,01.103,551
2022-07-04T13:06:49,42.805,6.029,CST-1368DR,4675,5204,11860,01.100,551
2022-07-04T13:09:51,42.805,6.029,CST-1368DR,4675,5197,11843,01.106,551
2022-07-04T13:12:52,42.805,6.029,CST-1368DR,4675,5211,11876,01.095,551
2022-07-04T13:15:54,42.805,6.029,CST-1368DR,4675,5215,11886,01.092,551
2022-07-04T13:18:55,42.805,6.029,CST-1368DR,4675,5208,11870,01.097,551
2022-07-04T13:21:57,42.805,6.029,CST-1368DR,4675,5199,11850,01.104,551
2022-07-04T13:24:59,42.805,6.029,CST-1368DR,4675,5207,11867,01.098,551
2022-07-04T13:28:00,42.805,6.029,CST-1368DR,4675,5205,11862,01.100,551
2022-07-04T13:31:02,42.805,6.029,CST-1368DR,4675,5200,11851,01.104,551
2022-07-04T13:34:03,42.805,6.029,CST-1368DR,4675,5198,11846,01.105,551
2022-07-04T13:37:05,42.805,6.029,CST-1368DR,4675,5192,11833,01.110,551
2022-07-04T13:40:06,42.805,6.029,CST-1368DR,4675,5197,11844,01.106,551
2022-07-04T13:43:08,42.805,6.029,CST-1368DR,4675,5192,11832,01.110,551
2022-07-04T13:46:10,42.805,6.029,CST-1368DR,4675,5203,11858,01.101,551
2022-07-04T13:49:11,42.805,6.029,CST-1368DR,4675,5205,11862,01.100,551
2022-07-04T13:52:13,42.805,6.029,CST-1368DR,4675,5204,11860,01.100,551
2022-07-04T13:55:14,42.805,6.029,CST-1368DR,4675,5201,11852,01.103,551
2022-07-04T13:58:16,42.805,6.029,CST-1368DR,4675,5197,11844,01.106,551
2022-07-04T14:01:18,42.805,6.029,CST-1368DR,4675,5196,11842,01.107,551
2022-07-04T14:04:19,42.805,6.029,CST-1368DR,4675,5197,11843,01.106,551
2022-07-04T14:07:21,42.805,6.029,CST-1368DR,4675,5194,11837,01.108,551
2022-07-04T14:10:22,42.805,6.029,CST-1368DR,4675,5198,11846,01.105,551
2022-07-04T14:13:24,42.805,6.029,CST-1368DR,4675,5191,11831,01.110,551
2022-07-04T14:16:25,42.805,6.029,CST-1368DR,4675,5192,11834,01.109,551
2022-07-04T14:19:27,42.805,6.029,CST-1368DR,4675,5199,11849,01.104,551
2022-07-04T14:22:29,42.805,6.029,CST-1368DR,4675,5190,11827,01.112,551
2022-07-04T14:25:30,42.805,6.029,CST-1368DR,4675,5194,11838,01.108,551
2022-07-04T14:28:32,42.805,6.029,CST-1368DR,4675,5196,11841,01.107,551
2022-07-04T14:31:33,42.805,6.029,CST-1368DR,4675,5195,11839,01.108,551
2022-07-04T14:34:35,42.805,6.029,CST-1368DR,4675,5189,11825,01.112,551
2022-07-04T14:37:36,42.805,6.029,CST-1368DR,4675,5196,11841,01.107,551
2022-07-04T14:40:38,42.805,6.029,CST-1368DR,4675,5207,11866,01.098,551
2022-07-04T14:43:40,42.805,6.029,CST-1368DR,4675,5200,11851,01.104,551
2022-07-04T14:46:41,42.805,6.029,CST-1368DR,4675,5204,11861,01.100,551
2022-07-04T14:49:43,42.805,6.029,CST-1368DR,4675,5202,11855,01.102,551
2022-07-04T14:52:44,42.805,6.029,CST-1368DR,4675,5205,11862,01.100,551
2022-07-04T14:55:46,42.805,6.029,CST-1368DR,4675,5207,11868,01.098,551
2022-07-04T14:58:48,42.805,6.029,CST-1368DR,4675,5206,11864,01.099,551
2022-07-04T15:01:49,42.805,6.029,CST-1368DR,4675,5197,11844,01.106,551
2022-07-04T15:04:51,42.805,6.029,CST-1368DR,4675,5199,11850,01.104,551
2022-07-04T15:07:52,42.805,6.029,CST-1368DR,4675,5197,11845,01.106,551
2022-07-04T15:10:54,42.805,6.029,CST-1368DR,4675,5201,11853,01.103,551
2022-07-04T15:13:55,42.805,6.029,CST-1368DR,4675,5212,11878,01.094,551
2022-07-04T15:16:57,42.805,6.029,CST-1368DR,4675,5205,11863,01.099,551
2022-07-04T15:19:59,42.805,6.029,CST-1368DR,4675,5200,11851,01.104,551
2022-07-04T15:23:00,42.805,6.029,CST-1368DR,4675,5199,11848,01.105,551
2022-07-04T15:26:02,42.805,6.029,CST-1368DR,4675,5198,11847,01.105,551
2022-07-04T15:29:03,42.805,6.029,CST-1368DR,4675,5196,11841,01.107,551
2022-07-04T15:32:05,42.805,6.029,CST-1368DR,4675,5200,11851,01.104,551
2022-07-04T15:35:06,42.805,6.029,CST-1368DR,4675,5220,11896,01.088,551
2022-07-04T15:38:08,42.805,6.029,CST-1368DR,4675,5217,11890,01.090,551
2022-07-04T15:41:10,42.805,6.029,CST-1368DR,4675,5214,11882,01.093,551
2022-07-04T15:44:11,42.805,6.029,CST-1368DR,4675,5214,11883,01.093,551
2022-07-04T15:47:13,42.805,6.029,CST-1368DR,4675,5209,11871,01.097,551
2022-07-04T15:50:14,42.805,6.029,CST-1368DR,4675,5210,11874,01.096,551
2022-07-04T15:53:16,42.805,6.029,CST-1368DR,4675,5198,11847,01.105,551
2022-07-04T15:56:18,42.805,6.029,CST-1368DR,4675,5205,11863,01.099,551
2022-07-04T15:59:19,42.805,6.029,CST-1368DR,4675,5201,11854,01.103,551
2022-07-04T16:02:21,42.805,6.029,CST-1368DR,4675,5194,11837,01.108,551
2022-07-04T16:05:22,42.805,6.029,CST-1368DR,4675,5202,11855,01.102,551
2022-07-04T16:08:24,42.805,6.029,CST-1368DR,4675,5201,11854,01.103,551
2022-07-04T16:11:25,42.805,6.029,CST-1368DR,4675,5193,11835,01.109,551
2022-07-04T16:14:27,42.805,6.029,CST-1368DR,4675,5199,11848,01.105,551
2022-07-04T16:17:29,42.805,6.029,CST-1368DR,4675,5209,11871,01.097,551
2022-07-04T16:20:30,42.805,6.029,CST-1368DR,4674,5193,11838,01.108,551
2022-07-04T16:23:32,42.805,6.029,CST-1368DR,4675,5196,11842,01.107,551
2022-07-04T16:26:33,42.805,6.029,CST-1368DR,4675,5203,11858,01.101,551
2022-07-04T16:29:35,42.805,6.029,CST-1368DR,4675,5207,11866,01.098,551
2022-07-04T16:32:36,42.805,6.029,CST-1368DR,4675,5202,11855,01.102,551
2022-07-04T16:35:38,42.805,6.029,CST-1368DR,4674,5191,11834,01.109,551
2022-07-04T16:38:40,42.805,6.029,CST-1368DR,4674,5196,11844,01.106,551